Home > Weather > Mountain View > Past weeks

Flag for USA Past Weather in Mountain View, California, USA — Yesterday and Last 2 Weeks

Now
60 °F

Clear.


Feels Like: 60 °F
Forecast: 57 / 83 °F
Wind: No wind

Location: Moffett Field

Current Time: Jul 24, 2016 at 5:53:35 AM

Latest Report: Jul 24, 2016 at 4:56 AM


Visibility: 10 mi

Pressure: 29.85 "Hg

Humidity: 78%

Dew Point: 53 °F

Location of Mountain ViewLocation

Past Weather in Mountain View — Graph

°F

Mountain View Temperature Yesterday

Maximum temperature yesterday: 81 °F (at 2:56 PM)
Minimum temperature yesterday: 60 °F (at 3:56 AM)
Average temperature yesterday: 69 °F

High & Low Weather Summary for the Past Weeks

 TemperatureHumidityPressure
High83 °F (Jul 13, 2:56 PM)90% (Jul 15, 1:56 AM)30.14 "Hg (Jul 15, 1:56 AM)
Low55 °F (Jul 19, 5:56 AM)28% (Jul 10, 5:56 PM)29.85 "Hg (Jul 24, 3:56 AM)
Average66 °F65%30.01 "Hg
* Reported Jul 9 3:56 AM — Jul 24 3:56 AM, Mountain View, Weather by CustomWeather, © 2016

Note: Actual official high and low records may vary slightly from our data, if they occured in-between our weather recording intervals... More about our weather records

Advertising

Mountain View Weather History for the Previous 24 Hours

Scroll right to see more
 ConditionsComfort  
Time TempWeatherWind HumidityBarometerVisibility
3:56 AM
Sun, Jul 24
60 °FClear.3 mph80%29.85 "Hg10 mi
2:56 AM61 °FClear.No wind78%29.86 "Hg10 mi
1:56 AM61 °FClear.No wind81%29.87 "Hg10 mi
12:56 AM62 °FClear.5 mph78%29.87 "Hg10 mi
11:56 PM
Sat, Jul 23
61 °FClear.6 mph78%29.88 "Hg10 mi
10:56 PM64 °FClear.5 mph73%29.89 "Hg10 mi
9:56 PM65 °FClear.7 mph70%29.89 "Hg10 mi
8:56 PM66 °FSunny.7 mph70%29.88 "Hg10 mi
7:56 PM69 °FSunny.7 mph66%29.87 "Hg10 mi
6:56 PM72 °FSunny.14 mph61%29.86 "Hg10 mi
5:56 PM75 °FSunny.10 mph58%29.87 "Hg10 mi
4:56 PM76 °FSunny.14 mph52%29.89 "Hg10 mi
3:56 PM78 °FSunny.12 mph45%29.90 "Hg10 mi
2:56 PM81 °FSunny.10 mph41%29.92 "Hg10 mi
1:56 PM80 °FSunny.13 mph47%29.94 "Hg10 mi
12:56 PM80 °FSunny.9 mph45%29.95 "Hg10 mi
11:56 AM80 °FSunny.6 mph45%29.97 "Hg10 mi
10:56 AM77 °FSunny.6 mph48%29.98 "Hg10 mi
9:56 AM70 °FSunny.5 mph64%30.00 "Hg10 mi
8:56 AM67 °FSunny.3 mph68%30.01 "Hg10 mi
7:56 AM64 °FSunny.No wind75%30.00 "Hg10 mi
6:56 AM60 °FClear.No wind80%29.99 "Hg10 mi
5:56 AM60 °FClear.No wind78%29.99 "Hg10 mi
Weather by CustomWeather, © 2016

See weather overviewHow to use our weather pages